| time (UTC) | temp F | wind direction | speed MPH | gust MPH | rain 1hr in | rain 24hr in | rain mn in | humidity % | barometer mb |
| 20260503231505 | 72 | 212 | 5.0 | 9.0 | 0.00 | 0.01 | 0.01 | 33 | 1016.0 |
| 20260503231005 | 72 | 199 | 1.0 | 5.0 | 0.00 | 0.01 | 0.01 | 34 | 1016.1 |
| 20260503230505 | 72 | 308 | 2.0 | 3.0 | 0.00 | 0.01 | 0.01 | 34 | 1016.1 |
| 20260503225505 | 72 | 343 | 2.0 | 5.0 | 0.00 | 0.01 | 0.01 | 35 | 1016.1 |
| 20260503224506 | 72 | 338 | 2.0 | 5.0 | 0.00 | 0.01 | 0.01 | 36 | 1016.1 |
| 20260503224005 | 72 | 307 | 2.0 | 5.0 | 0.00 | 0.01 | 0.01 | 37 | 1016.2 |
| 20260503223506 | 72 | 346 | 3.0 | 5.0 | 0.00 | 0.01 | 0.01 | 36 | 1016.1 |
| 20260503223005 | 72 | 323 | 2.0 | 5.0 | 0.00 | 0.01 | 0.01 | 37 | 1016.2 |
| 20260503222505 | 73 | 311 | 2.0 | 3.0 | 0.00 | 0.01 | 0.01 | 36 | 1016.2 |
| 20260503222005 | 73 | 338 | 2.0 | 6.0 | 0.00 | 0.01 | 0.01 | 37 | 1016.3 |
| 20260503221505 | 73 | 311 | 2.0 | 3.0 | 0.00 | 0.01 | 0.01 | 36 | 1016.2 |
| 20260503221005 | 73 | 329 | 2.0 | 6.0 | 0.00 | 0.01 | 0.01 | 37 | 1016.2 |
| 20260503220505 | 73 | 286 | 2.0 | 3.0 | 0.00 | 0.01 | 0.01 | 35 | 1016.2 |
| 20260503220005 | 72 | 235 | 3.0 | 7.0 | 0.00 | 0.01 | 0.01 | 35 | 1016.3 |
| 20260503215505 | 72 | 330 | 3.0 | 10.0 | 0.00 | 0.01 | 0.01 | 36 | 1016.2 |
| 20260503215005 | 73 | 332 | 5.0 | 12.0 | 0.00 | 0.01 | 0.01 | 34 | 1016.3 |
| 20260503214005 | 72 | 304 | 1.0 | 3.0 | 0.00 | 0.01 | 0.01 | 36 | 1016.3 |
| 20260503213006 | 72 | 351 | 3.0 | 6.0 | 0.00 | 0.01 | 0.01 | 36 | 1016.4 |
| 20260503212505 | 72 | 245 | 1.0 | 8.0 | 0.00 | 0.01 | 0.01 | 35 | 1016.3 |
| 20260503212005 | 72 | 220 | 4.0 | 8.0 | 0.00 | 0.01 | 0.01 | 36 | 1016.4 |
| 20260503211505 | 72 | 346 | 2.0 | 6.0 | 0.00 | 0.01 | 0.01 | 35 | 1016.4 |
| 20260503211005 | 71 | 344 | 4.0 | 9.0 | 0.00 | 0.01 | 0.01 | 36 | 1016.3 |
| 20260503210005 | 71 | 317 | 5.0 | 12.0 | 0.00 | 0.01 | 0.01 | 38 | 1016.4 |
| 20260503205005 | 73 | 332 | 4.0 | 8.0 | 0.00 | 0.01 | 0.01 | 37 | 1016.4 |
| 20260503204504 | 72 | 320 | 3.0 | 8.0 | 0.00 | 0.01 | 0.01 | 37 | 1016.5 |
| 20260503203505 | 72 | 353 | 3.0 | 8.0 | 0.00 | 0.01 | 0.01 | 37 | 1016.7 |
| 20260503202505 | 72 | 271 | 3.0 | 9.0 | 0.00 | 0.01 | 0.01 | 33 | 1016.8 |
| 20260503202005 | 72 | 275 | 3.0 | 6.0 | 0.00 | 0.01 | 0.01 | 35 | 1016.8 |
| 20260503201505 | 72 | 256 | 2.0 | 6.0 | 0.00 | 0.01 | 0.01 | 36 | 1016.8 |
| 20260503201005 | 72 | 213 | 3.0 | 6.0 | 0.00 | 0.01 | 0.01 | 34 | 1017.0 |
| 20260503200005 | 72 | 130 | 1.0 | 3.0 | 0.00 | 0.01 | 0.01 | 38 | 1017.1 |
| 20260503195504 | 71 | 203 | 3.0 | 6.0 | 0.00 | 0.01 | 0.01 | 38 | 1017.2 |
| 20260503195005 | 71 | 227 | 5.0 | 9.0 | 0.00 | 0.01 | 0.01 | 39 | 1017.2 |
| 20260503194505 | 71 | 225 | 3.0 | 12.0 | 0.00 | 0.01 | 0.01 | 37 | 1017.4 |
| 20260503194004 | 71 | 226 | 2.0 | 7.0 | 0.00 | 0.01 | 0.01 | 36 | 1017.5 |
| 20260503193505 | 70 | 313 | 4.0 | 8.0 | 0.00 | 0.01 | 0.01 | 38 | 1017.6 |
| 20260503193005 | 70 | 218 | 6.0 | 12.0 | 0.00 | 0.01 | 0.01 | 38 | 1017.7 |
| 20260503192505 | 70 | 276 | 2.0 | 7.0 | 0.00 | 0.01 | 0.01 | 38 | 1017.8 |
| 20260503192005 | 70 | 309 | 3.0 | 10.0 | 0.00 | 0.01 | 0.01 | 39 | 1017.9 |
| 20260503191005 | 70 | 317 | 3.0 | 10.0 | 0.00 | 0.01 | 0.01 | 40 | 1018.1 |
| 20260503190505 | 70 | 351 | 3.0 | 8.0 | 0.00 | 0.01 | 0.01 | 41 | 1018.2 |
| 20260503190004 | 70 | 286 | 2.0 | 9.0 | 0.00 | 0.01 | 0.01 | 43 | 1018.3 |
| 20260503185005 | 70 | 334 | 3.0 | 5.0 | 0.00 | 0.01 | 0.01 | 40 | 1018.5 |
| 20260503184504 | 70 | 36 | 2.0 | 10.0 | 0.00 | 0.01 | 0.01 | 39 | 1018.6 |
| 20260503184005 | 70 | 332 | 3.0 | 10.0 | 0.00 | 0.01 | 0.01 | 41 | 1018.6 |
| 20260503183504 | 69 | 19 | 2.0 | 3.0 | 0.00 | 0.01 | 0.01 | 41 | 1018.6 |
| 20260503183005 | 69 | 213 | 2.0 | 7.0 | 0.00 | 0.01 | 0.01 | 41 | 1018.7 |
| 20260503182505 | 69 | 326 | 3.0 | 8.0 | 0.00 | 0.01 | 0.01 | 41 | 1018.9 |
| 20260503182006 | 69 | 334 | 5.0 | 12.0 | 0.00 | 0.01 | 0.01 | 40 | 1018.9 |
| 20260503181005 | 68 | 278 | 3.0 | 6.0 | 0.00 | 0.01 | 0.01 | 39 | 1019.0 |
| 20260503180505 | 68 | 328 | 5.0 | 9.0 | 0.00 | 0.01 | 0.01 | 40 | 1019.0 |
| 20260503180005 | 69 | 351 | 3.0 | 10.0 | 0.00 | 0.01 | 0.01 | 40 | 1019.1 |
| 20260503175504 | 68 | 161 | 2.0 | 5.0 | 0.00 | 0.01 | 0.01 | 39 | 1019.1 |
| 20260503174505 | 68 | 207 | 3.0 | 6.0 | 0.00 | 0.01 | 0.01 | 37 | 1019.2 |
| 20260503173505 | 68 | 259 | 3.0 | 8.0 | 0.00 | 0.01 | 0.01 | 38 | 1019.2 |
| 20260503173004 | 68 | 199 | 3.0 | 9.0 | 0.00 | 0.01 | 0.01 | 40 | 1019.2 |
| 20260503171504 | 67 | 238 | 2.0 | 9.0 | 0.00 | 0.01 | 0.01 | 43 | 1019.3 |
| 20260503171005 | 67 | 124 | 3.0 | 8.0 | 0.00 | 0.01 | 0.01 | 41 | 1019.3 |
| 20260503151004 | 62 | 62 | 2.0 | 3.0 | 0.00 | 0.02 | 0.01 | 57 | 1020.2 |
| 20260503150504 | 61 | 346 | 2.0 | 3.0 | 0.00 | 0.02 | 0.01 | 62 | 1020.2 |
| 20260503131004 | 52 | 308 | 3.0 | 7.0 | 0.00 | 0.08 | 0.01 | 96 | 1019.8 |
| 20260503130504 | 52 | 310 | 3.0 | 3.0 | 0.00 | 0.08 | 0.01 | 96 | 1019.6 |
| 20260503110507 | 48 | 330 | 0.0 | 1.0 | 0.00 | 0.20 | 0.01 | 95 | 1018.6 |
| 20260503090507 | 50 | 209 | 0.0 | 2.0 | 0.00 | 0.26 | 0.01 | 95 | 1017.3 |
| 20260503081507 | 50 | 221 | 0.0 | 0.0 | 0.01 | 0.34 | 0.01 | 95 | 1017.0 |
| 20260503081006 | 49 | 221 | 0.0 | 0.0 | 0.01 | 0.35 | 0.01 | 95 | 1017.0 |
| 20260503080506 | 49 | 221 | 0.0 | 0.0 | 0.01 | 0.37 | 0.01 | 95 | 1016.9 |
| 20260503072507 | 49 | 221 | 0.0 | 0.0 | 0.00 | 0.44 | 0.00 | 94 | 1016.7 |
| 20260503071507 | 50 | 221 | 0.0 | 0.0 | 0.00 | 0.45 | 0.00 | 94 | 1016.7 |
| 20260503071006 | 50 | 221 | 0.0 | 0.0 | 0.00 | 0.47 | 0.00 | 95 | 1016.6 |
| 20260503055006 | 52 | 221 | 0.0 | 0.0 | 0.00 | 0.51 | 0.00 | 94 | 1016.3 |
| 20260503054506 | 52 | 221 | 0.0 | 0.0 | 0.00 | 0.51 | 0.00 | 94 | 1016.3 |
| 20260503054006 | 53 | 221 | 0.0 | 1.0 | 0.00 | 0.51 | 0.00 | 94 | 1016.3 |
| 20260503053007 | 53 | 216 | 1.0 | 3.0 | 0.00 | 0.51 | 0.00 | 94 | 1016.3 |
| 20260503052007 | 53 | 275 | 0.0 | 1.0 | 0.00 | 0.51 | 0.00 | 94 | 1016.3 |
| 20260503051006 | 53 | 355 | 0.0 | 1.0 | 0.00 | 0.51 | 0.00 | 94 | 1016.3 |
| 20260503050506 | 53 | 5 | 0.0 | 0.0 | 0.00 | 0.51 | 0.00 | 93 | 1016.3 |
| 20260503050006 | 53 | 5 | 0.0 | 0.0 | 0.00 | 0.51 | 0.00 | 93 | 1016.3 |
| 20260503045507 | 53 | 5 | 0.0 | 0.0 | 0.00 | 0.51 | 0.00 | 93 | 1016.3 |
| 20260503045006 | 53 | 5 | 0.0 | 1.0 | 0.00 | 0.51 | 0.00 | 93 | 1016.3 |
| 20260503044506 | 53 | 5 | 0.0 | 0.0 | 0.00 | 0.51 | 0.00 | 93 | 1016.3 |
| 20260503044007 | 53 | 5 | 0.0 | 0.0 | 0.00 | 0.51 | 0.00 | 93 | 1016.3 |
| 20260503043006 | 54 | 5 | 0.0 | 0.0 | 0.00 | 0.51 | 0.00 | 92 | 1016.1 |
| 20260503042506 | 54 | 5 | 0.0 | 0.0 | 0.00 | 0.51 | 0.00 | 93 | 1016.0 |
| 20260503041006 | 54 | 5 | 0.0 | 1.0 | 0.00 | 0.51 | 0.00 | 92 | 1016.0 |
| 20260503040507 | 55 | 355 | 0.0 | 0.0 | 0.00 | 0.51 | 0.00 | 92 | 1016.0 |
| 20260503035006 | 55 | 355 | 0.0 | 0.0 | 0.00 | 0.51 | 0.51 | 92 | 1015.9 |
| 20260503034506 | 55 | 355 | 0.0 | 0.0 | 0.00 | 0.51 | 0.51 | 92 | 1015.8 |
| 20260503034006 | 55 | 355 | 0.0 | 1.0 | 0.00 | 0.51 | 0.51 | 92 | 1015.9 |
| 20260503033507 | 55 | 355 | 0.0 | 0.0 | 0.00 | 0.51 | 0.51 | 92 | 1015.9 |
| 20260503033006 | 55 | 355 | 0.0 | 0.0 | 0.00 | 0.51 | 0.51 | 92 | 1015.9 |
| 20260503032506 | 55 | 355 | 0.0 | 0.0 | 0.00 | 0.51 | 0.51 | 92 | 1016.0 |
| 20260503032006 | 55 | 355 | 0.0 | 1.0 | 0.00 | 0.51 | 0.51 | 93 | 1016.1 |
| 20260503031506 | 55 | 0 | 0.0 | 1.0 | 0.00 | 0.51 | 0.51 | 92 | 1016.1 |
| 20260503031006 | 55 | 0 | 0.0 | 2.0 | 0.00 | 0.51 | 0.51 | 92 | 1016.1 |
| 20260503030506 | 55 | 355 | 0.0 | 3.0 | 0.00 | 0.51 | 0.51 | 92 | 1016.0 |
| 20260503030006 | 55 | 338 | 1.0 | 3.0 | 0.00 | 0.51 | 0.51 | 92 | 1016.0 |
| 20260503025506 | 55 | 355 | 1.0 | 3.0 | 0.00 | 0.51 | 0.51 | 92 | 1016.0 |
| 20260503025006 | 55 | 296 | 0.0 | 0.0 | 0.00 | 0.51 | 0.51 | 92 | 1015.6 |
| 20260503024506 | 55 | 296 | 0.0 | 0.0 | 0.00 | 0.51 | 0.51 | 92 | 1015.5 |
| 20260503024006 | 55 | 296 | 0.0 | 1.0 | 0.00 | 0.51 | 0.51 | 92 | 1015.5 |
| 20260503023506 | 55 | 296 | 0.0 | 0.0 | 0.00 | 0.51 | 0.51 | 92 | 1015.4 |
| 20260503023006 | 55 | 296 | 0.0 | 1.0 | 0.00 | 0.51 | 0.51 | 92 | 1015.4 |
| 20260503022506 | 55 | 296 | 0.0 | 1.0 | 0.00 | 0.51 | 0.51 | 92 | 1015.3 |
| 20260503022006 | 55 | 296 | 1.0 | 1.0 | 0.00 | 0.51 | 0.51 | 91 | 1015.3 |
| 20260503021506 | 55 | 296 | 0.0 | 1.0 | 0.00 | 0.51 | 0.51 | 91 | 1015.2 |
| 20260503021005 | 55 | 296 | 1.0 | 2.0 | 0.00 | 0.51 | 0.51 | 91 | 1015.0 |
| 20260503020006 | 55 | 128 | 0.0 | 1.0 | 0.00 | 0.51 | 0.51 | 90 | 1014.5 |
| 20260503015506 | 55 | 128 | 0.0 | 2.0 | 0.00 | 0.51 | 0.51 | 90 | 1014.4 |
| 20260503015006 | 56 | 132 | 0.0 | 2.0 | 0.00 | 0.51 | 0.51 | 90 | 1014.3 |
| 20260503014505 | 56 | 123 | 0.0 | 1.0 | 0.00 | 0.51 | 0.51 | 90 | 1014.2 |
| 20260503014006 | 56 | 123 | 1.0 | 3.0 | 0.00 | 0.51 | 0.51 | 90 | 1014.0 |
| 20260503013006 | 56 | 298 | 2.0 | 3.0 | 0.00 | 0.51 | 0.51 | 89 | 1014.0 |
| 20260503012506 | 56 | 267 | 0.0 | 2.0 | 0.00 | 0.51 | 0.51 | 88 | 1013.9 |
| 20260503012006 | 56 | 198 | 0.0 | 1.0 | 0.00 | 0.51 | 0.51 | 88 | 1013.9 |
| 20260503011506 | 56 | 198 | 0.0 | 1.0 | 0.00 | 0.51 | 0.51 | 89 | 1013.7 |
| 20260503010505 | 56 | 141 | 0.0 | 1.0 | 0.00 | 0.51 | 0.51 | 88 | 1013.6 |
| 20260503010005 | 56 | 128 | 0.0 | 1.0 | 0.00 | 0.51 | 0.51 | 88 | 1013.4 |
| 20260503005505 | 56 | 129 | 1.0 | 3.0 | 0.00 | 0.51 | 0.51 | 88 | 1013.1 |
| 20260503005006 | 56 | 148 | 0.0 | 2.0 | 0.00 | 0.51 | 0.51 | 88 | 1013.0 |
| 20260503004505 | 56 | 125 | 1.0 | 3.0 | 0.00 | 0.51 | 0.51 | 87 | 1012.9 |
| 20260503004006 | 56 | 123 | 1.0 | 2.0 | 0.00 | 0.51 | 0.51 | 87 | 1013.0 |
| 20260503003005 | 57 | 123 | 0.0 | 1.0 | 0.00 | 0.51 | 0.51 | 86 | 1013.1 |
| 20260503002505 | 57 | 123 | 0.0 | 1.0 | 0.00 | 0.51 | 0.51 | 86 | 1012.8 |
| 20260503002006 | 57 | 123 | 0.0 | 3.0 | 0.00 | 0.51 | 0.51 | 86 | 1012.8 |
| 20260503001506 | 57 | 138 | 1.0 | 3.0 | 0.00 | 0.51 | 0.51 | 86 | 1012.7 |
| 20260503001005 | 57 | 128 | 1.0 | 3.0 | 0.00 | 0.51 | 0.51 | 86 | 1012.7 |
| 20260503000505 | 57 | 131 | 0.0 | 1.0 | 0.00 | 0.51 | 0.51 | 86 | 1012.7 |
| 20260502235505 | 57 | 131 | 0.0 | 3.0 | 0.00 | 0.51 | 0.51 | 85 | 1012.5 |
| 20260502235006 | 57 | 134 | 2.0 | 3.0 | 0.00 | 0.51 | 0.51 | 85 | 1012.3 |
| 20260502234505 | 58 | 133 | 0.0 | 1.0 | 0.00 | 0.51 | 0.51 | 85 | 1012.4 |
| 20260502234006 | 58 | 133 | 1.0 | 2.0 | 0.00 | 0.51 | 0.51 | 85 | 1012.3 |
| 20260502233505 | 58 | 128 | 1.0 | 3.0 | 0.00 | 0.51 | 0.51 | 83 | 1012.2 |
| 20260502233006 | 59 | 130 | 1.0 | 3.0 | 0.00 | 0.51 | 0.51 | 83 | 1012.3 |
| 20260502232505 | 59 | 166 | 1.0 | 3.0 | 0.00 | 0.51 | 0.51 | 83 | 1012.3 |